Starlink 5163

operational
NORAD ID: 54054 Int'l Des: 2022-136 Owner: SPXS Country: US Constellation: starlink
LEOCIRCULAR

关于 Starlink 5163

正在加载描述...

实时位置

正在加载3D地球...

即将过境

高度历史

Altitude vs Time

uPlot chart will show altitude changes over time

两行轨道根数

1 54054U 22136D 25351.29687835 -.00001485 00000-0 -75243-4 0 9991
2 54054 53.2189 354.1213 0001538 88.6333 271.4836 15.08836064174403
Epoch: Dec 17, 2025 • Age: 6 hours

当前状态

高度 539.7 km
速度 7.59 km/s
星下点 10.33°N, 71.16°E
发射日期 Oct 20, 2022
运行时间 3.1 years
类型 internet

技术详情

分类 Payload
质量 305.00 kg
干质量 290.00 kg
总质量 305.00 kg
长度 0.20 m
直径 2.80 m
跨度 9.00 m
形状 Box + pan
制造商 SPXS
平台类型 Starlink
阶段状态 In Orbit
所有者/国家 SPXS/US

大型星座

Loading constellations...